[[{"header":{"parameterUnit":"m.s-1","parameterCategory":1,"la1":30.2991,"la2":30.254,"lo1":-89.0895,"lo2":-89.0444,"dy":0.0017,"dx":0.0017,"nx":28,"ny":28,"refTime":"2024-10-10T03:00:00:Z","depth":0,"parameterNumber":2,"parameterNumberName":"U-component_of_WINDS"},"data":[0,0,0,0,0,0,0,0,0,0,0,0,0,0,0,0,0,0,0,0,0,0,0,0,0,0,0,0,0,0,0,0,0,0,0,0,0,0,0,0,0,0,0,0,0,0,0,0,0,0,0,0,0,0,0,0,0,0,-0.5491,-0.5492,0,-0.5557,-0.5558,-0.5558,-0.5542,-0.5541,-0.554,-0.5539,-0.5608,-0.5611,-0.5614,0,0,0,0,0,0,0,0,0,0,0,0,0,-0.5353,-0.5355,-0.5491,-0.5492,-0.5493,-0.5557,-0.5558,-0.5559,-0.5543,-0.5541,-0.554,-0.5538,-0.5607,-0.5611,-0.5614,0,0,0,0,0,0,0,0,0,0,0,0,0,-0.5415,-0.5356,-0.5491,-0.5492,-0.5493,-0.5557,-0.5558,-0.5559,-0.5543,-0.5541,-0.5539,-0.5537,-0.5606,-0.561,-0.5615,-0.5682,0,0,-0.5629,-0.5631,0,0,0,0,0,0,0,0,-0.5412,-0.542,-0.5491,-0.5492,-0.5493,-0.5539,-0.5534,-0.56,-0.5543,-0.5524,-0.5539,-0.5536,-0.5587,-0.5593,-0.561,-0.5685,-0.5688,-0.5629,-0.5632,-0.5634,-0.5635,0,0,0,0,0,0,0,-0.5407,-0.5417,-0.5517,-0.5492,-0.5494,-0.549,-0.5497,-0.5547,-0.5566,-0.5526,-0.5525,-0.5533,-0.5587,-0.5605,-0.5611,-0.5689,-0.5629,-0.5633,-0.5636,-0.5638,-0.5822,-0.5824,0,0,0,0,0,0,-0.5402,-0.5414,-0.5515,-0.5519,-0.5447,-0.5494,-0.5502,-0.5527,-0.5565,-0.5569,-0.5534,-0.5532,-0.5598,-0.5606,-0.5614,-0.5695,-0.5634,-0.5638,-0.5641,-0.582,-0.5823,-0.5825,0,0,0,0,0,0,-0.5399,-0.5411,-0.5512,-0.5466,-0.5479,-0.5499,-0.5527,-0.5529,-0.5547,-0.5571,-0.5575,-0.5549,-0.5597,-0.5607,-0.5665,-0.5697,-0.564,-0.5644,-0.5817,-0.5821,-0.5824,-0.5857,0,0,0,0,0,0,-0.5395,-0.541,-0.5435,-0.5467,-0.5481,-0.5562,-0.5529,-0.5532,-0.5555,-0.5552,-0.5586,-0.559,-0.5596,-0.5658,-0.5669,-0.5702,-0.5648,-0.5815,-0.5819,-0.5823,-0.5853,-0.5861,-0.5868,0,0,0,0,0,-0.539,-0.5443,-0.5437,-0.5449,-0.5513,-0.5564,-0.5572,-0.5578,-0.5557,-0.5583,-0.5599,-0.5589,-0.5691,-0.5664,-0.5677,-0.5711,-0.5813,-0.5818,-0.5822,-0.585,-0.586,-0.5868,0,0,0,0,0,0,-0.5416,-0.5447,-0.5441,-0.5505,-0.5532,-0.5561,-0.5594,-0.5588,-0.5622,-0.5618,-0.5624,-0.5632,-0.5691,-0.5706,-0.5676,-0.5778,-0.5749,-0.5757,-0.5766,-0.5775,-0.5782,-0.5778,-0.5652,0,0,0,0,0,-0.5428,-0.5466,-0.5492,-0.5546,-0.556,-0.5575,-0.5597,-0.5599,-0.5627,-0.5639,-0.5659,-0.5687,-0.5725,-0.5751,-0.5787,-0.5855,-0.5863,-0.5885,-0.5892,-0.5898,-0.5905,-0.5942,-0.5953,-0.5841,-0.5841,-0.5841,0,0,-0.5456,-0.5478,-0.5501,-0.5552,-0.5573,-0.5613,-0.5585,-0.5628,-0.5658,-0.5646,-0.5701,-0.5717,-0.5749,-0.5812,-0.584,-0.5827,-0.5937,-0.5904,-0.5909,-0.5913,-0.5948,-0.5959,-0.5968,-0.5844,-0.5844,-0.5843,0,0,-0.5526,-0.5546,-0.5594,-0.5615,-0.5647,-0.5657,-0.5668,-0.5698,-0.5708,-0.5763,-0.5755,-0.579,-0.5856,-0.588,-0.59,-0.5978,-0.5971,-0.599,-0.6029,-0.6065,-0.6074,-0.6082,-0.6111,-0.6121,-0.5997,-0.5997,-0.5997,0,-0.5557,-0.5616,-0.5619,-0.5663,-0.5686,-0.5675,-0.5724,-0.5745,-0.5787,-0.5803,-0.5787,-0.5869,-0.589,-0.5959,-0.5977,-0.5994,-0.6008,-0.5987,-0.6072,-0.608,-0.6088,-0.6115,-0.6126,-0.5999,-0.5999,-0.5998,-0.5998,0,-0.5652,-0.5694,-0.5728,-0.5769,-0.5795,-0.5841,-0.5852,-0.5878,-0.5877,-0.5888,-0.5945,-0.5969,-0.601,-0.6026,-0.6026,-0.6095,-0.6085,-0.607,-0.6042,-0.61,-0.6127,-0.6137,-0.6002,-0.6001,-0.6001,-0.6,0,0,-0.5743,-0.5784,-0.5796,-0.5815,-0.5849,-0.5881,-0.5926,-0.5966,-0.5989,-0.6018,-0.6057,-0.6112,-0.6099,-0.6122,-0.6124,-0.6155,-0.6217,-0.6137,-0.6137,-0.6152,-0.6295,-0.6307,-0.6319,-0.6211,-0.6213,-0.6215,-0.6292,0,-0.5818,-0.5898,-0.5901,-0.5974,-0.6013,-0.6002,-0.6042,-0.6067,-0.6078,-0.6113,-0.6125,-0.6165,-0.6143,-0.6157,-0.6188,-0.6203,-0.6246,-0.6197,-0.6248,-0.625,-0.6242,-0.6333,-0.6346,-0.6418,-0.6303,-0.6304,-0.6305,0,-0.5916,-0.5948,-0.6024,-0.6053,-0.6069,-0.6104,-0.6141,-0.6174,-0.6202,-0.6208,-0.6233,-0.6231,-0.6277,-0.6246,-0.6311,-0.6277,-0.6298,-0.6309,-0.6311,-0.6318,-0.6283,-0.6343,-0.6441,-0.6453,-0.6321,-0.632,-0.6319,0,-0.5976,-0.6038,-0.6092,-0.6107,-0.6141,-0.6167,-0.6182,-0.6208,-0.6232,-0.6264,-0.6279,-0.6316,-0.6337,-0.6366,-0.6373,-0.6349,-0.6438,-0.6407,-0.6445,-0.6445,-0.6467,-0.6465,-0.6571,-0.6477,-0.6477,-0.6477,-0.6477,0,-0.606,-0.6108,-0.6119,-0.6152,-0.6205,-0.6209,-0.6261,-0.6275,-0.6298,-0.6334,-0.6327,-0.6361,-0.6368,-0.6403,-0.6409,-0.6463,-0.6472,-0.6478,-0.648,-0.648,-0.648,-0.6495,-0.6491,-0.648,-0.6479,-0.6478,-0.6478,0,-0.6137,-0.6146,-0.6205,-0.6231,-0.6239,-0.6277,-0.63,-0.6332,-0.6342,-0.6388,-0.6399,-0.6414,-0.6456,-0.6465,-0.6514,-0.6518,-0.6582,-0.6578,-0.6573,-0.6573,-0.6611,-0.6608,-0.6732,-0.6749,-0.6643,-0.6644,-0.6644,0,-0.6191,-0.6228,-0.6258,-0.6281,-0.6298,-0.6335,-0.6359,-0.6363,-0.6388,-0.6423,-0.6451,-0.6491,-0.6524,-0.6591,-0.6607,-0.6644,-0.6642,-0.6683,-0.6648,-0.6647,-0.6644,-0.6643,-0.6647,-0.669,-0.6691,-0.6692,-0.6693,0,-0.6287,-0.6289,-0.6323,-0.6359,-0.6388,-0.6416,-0.6444,-0.6463,-0.6471,-0.6499,-0.6541,-0.6567,-0.6616,-0.6657,-0.6695,-0.6711,-0.6704,-0.6703,-0.6714,-0.6716,-0.6712,-0.6716,-0.6593,-0.6701,-0.67,-0.67,-0.6699,-0.6699,-0.6355,-0.6387,-0.6413,-0.6451,-0.6472,-0.6497,-0.6529,-0.6542,-0.6577,-0.6618,-0.6617,-0.6664,-0.669,-0.674,-0.6758,-0.6794,-0.6782,-0.6798,-0.6802,-0.6806,-0.681,-0.6705,-0.6801,-0.6801,-0.68,-0.68,-0.68,0,-0.6451,-0.6467,-0.6502,-0.654,-0.657,-0.6559,-0.6589,-0.6615,-0.6655,-0.6681,-0.6713,-0.6761,-0.68,-0.6818,-0.6856,-0.6882,-0.688,-0.6892,-0.6891,-0.6895,-0.6819,-0.6806,-0.6893,-0.6893,-0.6893,-0.6893,-0.6893,-0.6893,-0.6505,-0.6558,-0.6564,-0.6628,-0.6643,-0.6688,-0.6706,-0.6729,-0.6749,-0.6803,-0.6835,-0.6846,-0.6869,-0.6909,-0.6944,-0.6948,-0.6964,-0.6978,-0.6981,-0.691,-0.6901,-0.6892,-0.688,-0.6981,-0.6981,-0.7055,-0.7055,-0.7056]},{"header":{"parameterUnit":"m.s-1","parameterCategory":1,"la1":30.2991,"la2":30.254,"lo1":-89.0895,"lo2":-89.0444,"dy":0.0017,"dx":0.0017,"nx":28,"ny":28,"refTime":"2024-10-10T03:00:00:Z","depth":0,"parameterNumber":3,"parameterNumberName":"V-component_of_WINDS"},"data":[0,0,0,0,0,0,0,0,0,0,0,0,0,0,0,0,0,0,0,0,0,0,0,0,0,0,0,0,0,0,0,0,0,0,0,0,0,0,0,0,0,0,0,0,0,0,0,0,0,0,0,0,0,0,0,0,0,0,-5.2435,-5.2436,0,-5.2528,-5.2529,-5.253,-5.2451,-5.2447,-5.2444,-5.2441,-5.2532,-5.2537,-5.2543,0,0,0,0,0,0,0,0,0,0,0,0,0,-5.2183,-5.2188,-5.2434,-5.2436,-5.2437,-5.2528,-5.2529,-5.253,-5.2451,-5.2447,-5.2443,-5.2439,-5.253,-5.2536,-5.2543,0,0,0,0,0,0,0,0,0,0,0,0,0,-5.2286,-5.2189,-5.2434,-5.2408,-5.2407,-5.2528,-5.2529,-5.2531,-5.2452,-5.2447,-5.2442,-5.2438,-5.2528,-5.2536,-5.2544,-5.2693,0,0,-5.2569,-5.2573,0,0,0,0,0,0,0,0,-5.228,-5.2295,-5.2411,-5.241,-5.2409,-5.2473,-5.2474,-5.2585,-5.2453,-5.2435,-5.2441,-5.2435,-5.2516,-5.2525,-5.2553,-5.2698,-5.2702,-5.257,-5.2575,-5.2578,-5.2581,0,0,0,0,0,0,0,-5.2273,-5.229,-5.2471,-5.2413,-5.2412,-5.2391,-5.24,-5.2494,-5.2502,-5.2436,-5.2431,-5.2443,-5.2514,-5.2545,-5.2554,-5.2703,-5.257,-5.2577,-5.2582,-5.2585,-5.2975,-5.298,0,0,0,0,0,0,-5.2269,-5.2285,-5.2468,-5.2474,-5.2331,-5.2399,-5.2409,-5.2457,-5.25,-5.2502,-5.2447,-5.2439,-5.2534,-5.2545,-5.2557,-5.2736,-5.2578,-5.2586,-5.2591,-5.297,-5.2976,-5.2982,0,0,0,0,0,0,-5.2264,-5.2286,-5.2465,-5.2378,-5.2399,-5.2409,-5.2463,-5.2462,-5.2493,-5.2509,-5.2509,-5.2478,-5.253,-5.2546,-5.2661,-5.2738,-5.259,-5.2597,-5.2963,-5.2972,-5.2979,-5.3094,0,0,0,0,0,0,-5.2257,-5.2285,-5.2343,-5.238,-5.2404,-5.2568,-5.2468,-5.2467,-5.2508,-5.2498,-5.2538,-5.2539,-5.2527,-5.2649,-5.2669,-5.2746,-5.2604,-5.2956,-5.2967,-5.2977,-5.3083,-5.3105,-5.3123,0,0,0,0,0,-5.2248,-5.237,-5.2346,-5.2369,-5.2477,-5.2573,-5.2586,-5.2571,-5.2514,-5.2572,-5.2582,-5.2538,-5.2726,-5.2661,-5.2683,-5.2764,-5.2951,-5.2964,-5.2976,-5.3074,-5.31,-5.3123,0,0,0,0,0,0,-5.234,-5.2374,-5.2348,-5.2486,-5.2527,-5.2559,-5.2631,-5.26,-5.2657,-5.2645,-5.2622,-5.2632,-5.2753,-5.277,-5.2697,-5.2911,-5.2829,-5.2846,-5.2896,-5.2922,-5.2941,-5.2935,-5.261,0,0,0,0,0,-5.2376,-5.2452,-5.2478,-5.2597,-5.2619,-5.2622,-5.2663,-5.2648,-5.2689,-5.2706,-5.2724,-5.2765,-5.2832,-5.2878,-5.2941,-5.3085,-5.3092,-5.3151,-5.3171,-5.3188,-5.3203,-5.328,-5.3307,-5.3022,-5.3022,-5.3022,0,0,-5.2451,-5.248,-5.2529,-5.2616,-5.2646,-5.2724,-5.2637,-5.2723,-5.2781,-5.2718,-5.2829,-5.2844,-5.2887,-5.3017,-5.3075,-5.3035,-5.3283,-5.3203,-5.3216,-5.3223,-5.3296,-5.3322,-5.3346,-5.303,-5.3029,-5.3028,0,0,-5.2629,-5.2659,-5.2762,-5.2794,-5.2842,-5.2843,-5.2868,-5.2905,-5.2913,-5.3024,-5.2979,-5.3046,-5.3163,-5.3196,-5.3228,-5.3419,-5.3381,-5.344,-5.3546,-5.3621,-5.3644,-5.3663,-5.3732,-5.3757,-5.3455,-5.3456,-5.3456,0,-5.2717,-5.2835,-5.2818,-5.2908,-5.2948,-5.2896,-5.3,-5.3031,-5.3096,-5.3124,-5.3078,-5.3225,-5.325,-5.3388,-5.3435,-5.3462,-5.3489,-5.3436,-5.3642,-5.3662,-5.368,-5.3745,-5.3771,-5.3463,-5.3462,-5.3461,-5.346,0,-5.294,-5.3022,-5.3099,-5.3166,-5.3213,-5.331,-5.3306,-5.3357,-5.3338,-5.3343,-5.3457,-5.3485,-5.3554,-5.3585,-5.3567,-5.372,-5.3694,-5.3646,-5.3563,-5.3714,-5.3775,-5.38,-5.3473,-5.347,-5.3468,-5.3466,0,0,-5.3177,-5.3235,-5.3263,-5.3293,-5.3342,-5.3405,-5.3498,-5.3567,-5.3611,-5.3657,-5.3735,-5.3836,-5.3792,-5.3828,-5.3813,-5.3879,-5.4029,-5.3822,-5.3823,-5.386,-5.42,-5.4237,-5.4266,-5.4004,-5.4009,-5.4012,-5.4197,0,-5.3358,-5.3523,-5.3511,-5.3666,-5.3742,-5.3694,-5.3775,-5.3814,-5.3822,-5.3886,-5.3893,-5.3966,-5.3902,-5.3924,-5.3987,-5.3998,-5.4097,-5.3984,-5.4075,-5.4078,-5.4067,-5.4298,-5.4337,-5.451,-5.4221,-5.4225,-5.4227,0,-5.359,-5.3647,-5.3811,-5.3849,-5.388,-5.3954,-5.4017,-5.4079,-5.4121,-5.4122,-5.4163,-5.4137,-5.423,-5.4145,-5.4272,-5.4196,-5.4232,-5.4243,-5.4249,-5.4257,-5.4163,-5.4313,-5.4564,-5.4591,-5.4265,-5.4262,-5.4259,0,-5.3748,-5.3865,-5.3979,-5.4006,-5.4053,-5.4106,-5.4128,-5.4165,-5.4207,-5.4261,-5.4288,-5.4352,-5.4387,-5.4436,-5.4427,-5.4366,-5.4557,-5.4471,-5.456,-5.456,-5.4602,-5.46,-5.4864,-5.4625,-5.4625,-5.4624,-5.4624,0,-5.3951,-5.4053,-5.4051,-5.412,-5.4233,-5.4217,-5.4328,-5.4344,-5.4377,-5.4448,-5.441,-5.4477,-5.446,-5.4526,-5.452,-5.4626,-5.4642,-5.4645,-5.4642,-5.4649,-5.4649,-5.4672,-5.466,-5.4631,-5.463,-5.4628,-5.4627,0,-5.4147,-5.4149,-5.4269,-5.4305,-5.4316,-5.4398,-5.4427,-5.4492,-5.4497,-5.4588,-5.4608,-5.4615,-5.4691,-5.4687,-5.4772,-5.4767,-5.4899,-5.4881,-5.4886,-5.4882,-5.4971,-5.4963,-5.526,-5.5298,-5.5035,-5.5037,-5.5039,0,-5.4276,-5.4354,-5.4399,-5.4445,-5.4471,-5.4544,-5.4588,-5.4575,-5.4622,-5.4676,-5.4735,-5.4807,-5.4865,-5.4988,-5.5,-5.5065,-5.5049,-5.5148,-5.5058,-5.5063,-5.5051,-5.5047,-5.5054,-5.5166,-5.5169,-5.5171,-5.5173,0,-5.4506,-5.4504,-5.457,-5.4637,-5.469,-5.4742,-5.4788,-5.4827,-5.4819,-5.4874,-5.4952,-5.4997,-5.5085,-5.5157,-5.5219,-5.5239,-5.5206,-5.5202,-5.5226,-5.5234,-5.5234,-5.5235,-5.4935,-5.5195,-5.5193,-5.5191,-5.519,-5.5189,-5.4673,-5.474,-5.4783,-5.4857,-5.4892,-5.4937,-5.5,-5.5014,-5.5079,-5.5151,-5.5139,-5.5227,-5.5266,-5.5346,-5.5373,-5.544,-5.5404,-5.5439,-5.5448,-5.5457,-5.5467,-5.5223,-5.5451,-5.545,-5.545,-5.5449,-5.5449,0,-5.4902,-5.4927,-5.4996,-5.5064,-5.5122,-5.5087,-5.5137,-5.5188,-5.5266,-5.5307,-5.5365,-5.5455,-5.5525,-5.5543,-5.561,-5.566,-5.5646,-5.5678,-5.5675,-5.568,-5.5495,-5.5468,-5.5689,-5.5689,-5.5688,-5.5688,-5.5688,-5.5688,-5.5028,-5.514,-5.5143,-5.5271,-5.5295,-5.5382,-5.5414,-5.5455,-5.5487,-5.559,-5.5649,-5.5661,-5.5692,-5.5762,-5.5824,-5.5827,-5.5854,-5.5892,-5.589,-5.5717,-5.5693,-5.567,-5.5644,-5.5898,-5.5899,-5.6069,-5.607,-5.6071]}]]